Location: Sternwarte-Kraichtal
(49.1689°N, 8.6996°E)
Time: 19:14:30
(UTC+02:00)

Vanguard 2 Rocket - Pass Details

Date: 31 May 2022
Orbit: 553 x 3323 km, 32.9° (Epoch: 02 July)

Event Time Altitude Azimuth Distance (km) Brightness Sun altitude
Rises 15:39:23 0° 254° (WSW) 7,302 12.1 51.7°
Reaches altitude 10° 15:44:43 10° 249° (WSW) 6,265 12.0 51.0°
Maximum altitude 16:02:19 43° 187° (S) 3,529 10.8 48.5°
Drops below altitude 10° 16:14:44 10° 121° (ESE) 4,505 10.3 46.6°
Sets 16:17:52 0° 115° (ESE) 5,169 10.5 46.2°
